Burlington, IA

9:56 AM CDT on May 28, 2017 (GMT -0500)
Burlington Regional

Weather History for KBRL - October, 2012

Change the Weather History Date:

Tuesday, October 9, 2012

  Actual Average Record
Temperature  
Mean Temperature 55 °F 58 °F  
Max Temperature 68 °F 69 °F 90 °F (1938)
Min Temperature 42 °F 47 °F 27 °F (1945)
Degree Days  
Heating Degree Days 10 8  
Month to date heating degree days 129 63  
Since 1 July heating degree days 255 134  
Cooling Degree Days 0 1  
Month to date cooling degree days 0 12  
Year to date cooling degree days 1272 1194  
Growing Degree Days 4 (Base 50)    
Moisture  
Dew Point 39 °F    
Average Humidity 68    
Maximum Humidity 96    
Minimum Humidity 40    
Precipitation  
Precipitation 0.21 in 0.11 in 0.58 in (1993)
Month to date precipitation 0.61 0.98  
Year to date precipitation 18.35 31.75  
Sea Level Pressure  
Sea Level Pressure 29.93 in    
Wind  
Wind Speed 12 mph (WSW)    
Max Wind Speed 23 mph    
Max Gust Speed 31 mph    
Visibility 10 miles    
Events Rain    
T = Trace of Precipitation, MM = Missing Value Source: NWS Daily Summary

Daily Weather History Graph

Daily Weather History Graph

Search for Another Location

Airport or City:

Trip Planner

Search our weather history database for the weather conditions in past years. The results will help you decide how hot, cold, wet, or windy it might be!

Date:

Astronomy

Oct. 09, 2012 Rise Set
Actual Time 7:09 AM CDT 6:32 PM CDT
Civil Twilight 6:42 AM CDT 7:00 PM CDT
Nautical Twilight 6:10 AM CDT 7:31 PM CDT
Astronomical Twilight 5:38 AM CDT 8:03 PM CDT
Moon 12:44 AM CDT (10/9) 3:02 PM CDT (10/9)
Length of Visible Light 12h 17m
Length of Day
11h 22m
Last Quarter, 36% of the Moon is Illuminated
Oct 9
Last Quarter
Oct 15
New
Oct 21
First Quarter
Oct 29
Full
Nov 6
Last Quarter

Hourly Weather History & Observations

Time (CDT) Temp. Windchill Dew Point Humidity Pressure Visibility Wind Dir Wind Speed Gust Speed Precip Events Conditions
12:53 AM 46.0 °F 41.0 °F 35.1 °F 66% 29.96 in 10.0 mi SSW 10.4 mph - N/A   Clear
1:53 AM 45.0 °F 39.3 °F 35.1 °F 68% 29.95 in 10.0 mi SSW 11.5 mph - N/A   Clear
2:53 AM 44.1 °F 39.0 °F 35.1 °F 71% 29.94 in 10.0 mi SSW 9.2 mph - N/A   Clear
3:53 AM 44.1 °F 38.6 °F 35.1 °F 71% 29.94 in 10.0 mi South 10.4 mph - N/A   Clear
4:53 AM 44.1 °F 38.6 °F 36.0 °F 73% 29.94 in 10.0 mi South 10.4 mph - N/A   Clear
5:53 AM 44.1 °F 38.6 °F 37.0 °F 76% 29.94 in 10.0 mi South 10.4 mph - N/A   Clear
6:53 AM 44.1 °F 38.1 °F 37.0 °F 76% 29.93 in 10.0 mi South 11.5 mph - N/A   Clear
7:53 AM 46.0 °F 39.9 °F 37.9 °F 73% 29.93 in 10.0 mi SSW 13.8 mph - N/A   Clear
8:53 AM 50.0 °F - 39.9 °F 68% 29.92 in 10.0 mi SSW 13.8 mph - N/A   Clear
9:53 AM 54.0 °F - 39.9 °F 59% 29.92 in 10.0 mi SW 15.0 mph - N/A   Clear
10:53 AM 57.0 °F - 39.9 °F 53% 29.92 in 10.0 mi SSW 17.3 mph 26.5 mph N/A   Clear
11:53 AM 62.1 °F - 39.0 °F 43% 29.90 in 10.0 mi SW 17.3 mph 24.2 mph N/A   Clear
12:53 PM 64.9 °F - 39.9 °F 40% 29.87 in 10.0 mi SW 18.4 mph 26.5 mph N/A   Clear
1:53 PM 66.0 °F - 41.0 °F 40% 29.86 in 10.0 mi SSW 16.1 mph 24.2 mph N/A   Clear
2:53 PM 66.9 °F - 41.0 °F 39% 29.83 in 10.0 mi SW 17.3 mph 31.1 mph N/A   Clear
3:53 PM 64.9 °F - 42.1 °F 43% 29.85 in 9.0 mi West 13.8 mph - N/A   Overcast
4:14 PM 60.8 °F - 39.2 °F 45% 29.86 in 10.0 mi NW 12.7 mph 26.5 mph N/A   Overcast
4:53 PM 61.0 °F - 39.0 °F 44% 29.87 in 9.0 mi WNW 11.5 mph 20.7 mph N/A   Overcast
5:53 PM 54.0 °F - 41.0 °F 62% 29.91 in 10.0 mi NNW 12.7 mph 25.3 mph N/A   Overcast
6:53 PM 46.9 °F - 44.1 °F 90% 29.96 in 5.0 mi NNW 11.5 mph 26.5 mph 0.12 in Rain Heavy Rain
7:53 PM 46.0 °F 41.4 °F 42.1 °F 86% 29.98 in 10.0 mi NNW 9.2 mph - 0.09 in   Overcast
8:53 PM 45.0 °F 41.8 °F 42.1 °F 90% 29.98 in 10.0 mi NW 5.8 mph - 0.00 in Rain Light Rain
9:53 PM 45.0 °F 42.6 °F 43.0 °F 93% 30.00 in 10.0 mi West 4.6 mph - 0.00 in   Overcast
10:53 PM 43.0 °F 39.5 °F 41.0 °F 93% 30.02 in 10.0 mi WNW 5.8 mph - N/A   Clear
11:53 PM 42.1 °F 37.7 °F 37.9 °F 85% 30.03 in 10.0 mi NW 6.9 mph - N/A   Clear